When you browse on this site, cookies collect data to enhance your experience and personalize the content and advertising you see.
Visit our Privacy Policy to learn more. By continuing to use the site, you agree to this use of cookies and data.
  • In Latvia
  • List of Countries
  • For 7 days
  • Water Temperature
  • Satellite Maps
  • Weather Map
  • Weather Widgets
  • user-avatar
    Login

    Hourly Weather Baraki Barak

    Today, 16 July, Tuesday

    Time Temperature Precipitation Wind Pressure Humidity
    00:00 +24°C° 0 mm 1 mps 596 mmHg 23%
    01:00 +23°C° 0 mm 1 mps 595 mmHg 24%
    02:00 +22°C° 0 mm 1 mps 595 mmHg 26%
    03:00 +21°C° 0 mm 1 mps 595 mmHg 26%
    04:00 +20°C° 0 mm 1 mps 594 mmHg 27%
    05:00 +20°C° 0 mm 1 mps 594 mmHg 28%
    06:00 +22°C° 0 mm 1 mps 595 mmHg 25%
    07:00 +24°C° 0 mm 1 mps 596 mmHg 21%
    08:00 +25°C° 0 mm 1 mps 597 mmHg 18%
    09:00 +27°C° 0 mm 1 mps 598 mmHg 16%
    10:00 +28°C° 0 mm 1 mps 598 mmHg 14%
    11:00 +30°C° 0 mm 1 mps 598 mmHg 12%
    12:00 +31°C° 0 mm 1 mps 598 mmHg 11%
    13:00 +32°C° 0 mm 2 mps 598 mmHg 10%
    14:00 +34°C° 0 mm 2 mps 598 mmHg 9%
    15:00 +34°C° 0 mm 2 mps 598 mmHg 8%
    16:00 +35°C° 0 mm 3 mps 598 mmHg 8%
    17:00 +35°C° 0 mm 3 mps 598 mmHg 8%
    18:00 +33°C° 0 mm 3 mps 598 mmHg 10%
    19:00 +31°C° 0 mm 3 mps 598 mmHg 13%
    20:00 +29°C° 0 mm 3 mps 597 mmHg 15%
    21:00 +28°C° 0 mm 3 mps 597 mmHg 21%
    22:00 +26°C° 0 mm 2 mps 597 mmHg 27%
    23:00 +25°C° 0 mm 1 mps 597 mmHg 34%

    Tomorrow, 17 July, Wednesday

    Time Temperature Precipitation Wind Pressure Humidity
    00:00 +24°C° 0 mm 1 mps 597 mmHg 37%
    01:00 +23°C° 0 mm 1 mps 597 mmHg 40%
    02:00 +23°C° 0 mm 1 mps 596 mmHg 44%
    03:00 +22°C° 0 mm 1 mps 596 mmHg 44%
    04:00 +19°C° 0 mm 0 mps 596 mmHg 44%
    05:00 +19°C° 0 mm 0 mps 595 mmHg 44%
    06:00 +21°C° 0 mm 0 mps 596 mmHg 39%
    07:00 +24°C° 0 mm 1 mps 597 mmHg 34%
    08:00 +26°C° 0 mm 1 mps 598 mmHg 28%
    09:00 +28°C° 0 mm 1 mps 598 mmHg 24%
    10:00 +29°C° 0 mm 1 mps 599 mmHg 20%
    11:00 +31°C° 0 mm 1 mps 599 mmHg 16%
    12:00 +32°C° 0 mm 2 mps 599 mmHg 13%
    13:00 +34°C° 0 mm 2 mps 599 mmHg 10%
    14:00 +35°C° 0 mm 2 mps 599 mmHg 7%
    15:00 +36°C° 0 mm 3 mps 599 mmHg 7%
    16:00 +36°C° 0 mm 3 mps 599 mmHg 6%
    17:00 +36°C° 0 mm 4 mps 599 mmHg 5%
    18:00 +34°C° 0 mm 4 mps 599 mmHg 8%
    19:00 +33°C° 0 mm 3 mps 598 mmHg 12%
    20:00 +30°C° 0 mm 3 mps 598 mmHg 15%
    21:00 +28°C° 0 mm 3 mps 598 mmHg 22%
    22:00 +27°C° 0 mm 2 mps 598 mmHg 29%
    23:00 +26°C° 0 mm 1 mps 598 mmHg 37%

    Day after tomorrow, 18 July, Thursday

    Time Temperature Precipitation Wind Pressure Humidity
    00:00 +25°C° 0 mm 1 mps 597 mmHg 39%
    01:00 +24°C° 0 mm 1 mps 597 mmHg 42%
    02:00 +23°C° 0 mm 1 mps 596 mmHg 45%
    03:00 +20°C° 0 mm 0 mps 596 mmHg 46%
    04:00 +20°C° 0 mm 0 mps 595 mmHg 47%
    05:00 +19°C° 0 mm 0 mps 595 mmHg 47%
    06:00 +21°C° 0 mm 0 mps 596 mmHg 41%
    07:00 +25°C° 0 mm 1 mps 597 mmHg 35%
    08:00 +26°C° 0 mm 1 mps 598 mmHg 29%
    09:00 +28°C° 0 mm 1 mps 598 mmHg 24%
    10:00 +30°C° 0 mm 1 mps 598 mmHg 19%
    11:00 +31°C° 0 mm 1 mps 599 mmHg 13%
    12:00 +32°C° 0 mm 2 mps 599 mmHg 12%
    13:00 +34°C° 0 mm 2 mps 599 mmHg 10%
    14:00 +36°C° 0 mm 3 mps 599 mmHg 8%
    15:00 +36°C° 0 mm 3 mps 599 mmHg 8%
    16:00 +36°C° 0 mm 3 mps 599 mmHg 7%
    17:00 +37°C° 0 mm 3 mps 599 mmHg 7%
    18:00 +35°C° 0 mm 3 mps 599 mmHg 9%
    19:00 +33°C° 0 mm 3 mps 598 mmHg 11%
    20:00 +30°C° 0 mm 3 mps 598 mmHg 14%
    21:00 +29°C° 0 mm 3 mps 598 mmHg 20%
    22:00 +27°C° 0 mm 2 mps 598 mmHg 27%
    23:00 +26°C° 0 mm 1 mps 598 mmHg 34%

    19 July, Friday

    Time Temperature Precipitation Wind Pressure Humidity
    00:00 +25°C° 0 mm 1 mps 597 mmHg 36%
    01:00 +24°C° 0 mm 1 mps 597 mmHg 38%
    02:00 +21°C° 0 mm 0 mps 596 mmHg 41%
    03:00 +21°C° 0 mm 0 mps 596 mmHg 43%
    04:00 +20°C° 0 mm 0 mps 596 mmHg 45%
    05:00 +19°C° 0 mm 0 mps 596 mmHg 46%
    06:00 +21°C° 0 mm 0 mps 597 mmHg 40%
    07:00 +25°C° 0 mm 1 mps 597 mmHg 34%
    08:00 +27°C° 0 mm 1 mps 598 mmHg 28%
    09:00 +28°C° 0 mm 1 mps 599 mmHg 24%
    10:00 +30°C° 0 mm 1 mps 599 mmHg 19%
    11:00 +32°C° 0 mm 1 mps 600 mmHg 14%
    12:00 +34°C° 0 mm 2 mps 600 mmHg 12%
    13:00 +35°C° 0 mm 2 mps 600 mmHg 10%
    14:00 +36°C° 0 mm 2 mps 600 mmHg 9%
    15:00 +36°C° 0 mm 2 mps 600 mmHg 8%
    16:00 +37°C° 0 mm 3 mps 600 mmHg 8%
    17:00 +37°C° 0 mm 3 mps 600 mmHg 7%
    18:00 +35°C° 0 mm 3 mps 600 mmHg 13%
    19:00 +33°C° 0 mm 3 mps 599 mmHg 19%
    20:00 +30°C° 0 mm 3 mps 599 mmHg 25%
    21:00 +29°C° 0 mm 2 mps 599 mmHg 32%
    22:00 +28°C° 0 mm 2 mps 599 mmHg 39%
    23:00 +26°C° 0 mm 1 mps 599 mmHg 45%

    20 July, Saturday

    Time Temperature Precipitation Wind Pressure Humidity
    00:00 +26°C° 0 mm 1 mps 598 mmHg 49%
    01:00 +25°C° 0 mm 1 mps 598 mmHg 53%
    02:00 +22°C° 0 mm 0 mps 597 mmHg 57%
    03:00 +22°C° 0 mm 0 mps 597 mmHg 59%
    04:00 +21°C° 0 mm 0 mps 597 mmHg 62%
    05:00 +20°C° 0 mm 0 mps 597 mmHg 64%
    06:00 +22°C° 0 mm 0 mps 597 mmHg 57%
    07:00 +25°C° 0 mm 1 mps 598 mmHg 50%
    08:00 +27°C° 0 mm 1 mps 599 mmHg 43%
    09:00 +29°C° 0 mm 1 mps 600 mmHg 34%
    10:00 +31°C° 0 mm 1 mps 600 mmHg 25%
    11:00 +32°C° 0 mm 2 mps 601 mmHg 17%
    12:00 +35°C° 0 mm 2 mps 601 mmHg 14%
    13:00 +36°C° 0 mm 2 mps 601 mmHg 11%
    14:00 +37°C° 0 mm 3 mps 601 mmHg 9%
    15:00 +37°C° 0 mm 3 mps 601 mmHg 8%
    16:00 +38°C° 0 mm 4 mps 601 mmHg 8%
    17:00 +39°C° 0 mm 5 mps 600 mmHg 7%
    18:00 +36°C° 0 mm 4 mps 600 mmHg 9%
    19:00 +33°C° 0 mm 4 mps 599 mmHg 11%
    20:00 +30°C° 0 mm 4 mps 599 mmHg 13%
    21:00 +29°C° 0 mm 3 mps 599 mmHg 16%
    22:00 +27°C° 0 mm 2 mps 598 mmHg 19%
    23:00 +26°C° 0 mm 1 mps 598 mmHg 23%

    21 July, Sunday

    Time Temperature Precipitation Wind Pressure Humidity
    00:00 +25°C° 0 mm 1 mps 598 mmHg 22%
    01:00 +24°C° 0 mm 1 mps 597 mmHg 22%
    02:00 +23°C° 0 mm 1 mps 596 mmHg 21%
    03:00 +23°C° 0 mm 1 mps 596 mmHg 21%
    04:00 +22°C° 0 mm 1 mps 596 mmHg 22%
    05:00 +21°C° 0 mm 1 mps 595 mmHg 22%
    06:00 +23°C° 0 mm 1 mps 596 mmHg 19%
    07:00 +25°C° 0 mm 1 mps 597 mmHg 16%
    08:00 +27°C° 0 mm 1 mps 598 mmHg 14%
    09:00 +29°C° 0 mm 2 mps 599 mmHg 12%
    10:00 +31°C° 0 mm 2 mps 599 mmHg 11%
    11:00 +32°C° 0 mm 2 mps 599 mmHg 9%
    12:00 +34°C° 0 mm 2 mps 599 mmHg 9%
    13:00 +35°C° 0 mm 2 mps 599 mmHg 8%
    14:00 +37°C° 0 mm 3 mps 599 mmHg 7%
    15:00 +37°C° 0 mm 4 mps 599 mmHg 7%
    16:00 +37°C° 0 mm 5 mps 599 mmHg 7%
    17:00 +37°C° 0 mm 5 mps 599 mmHg 7%
    18:00 +35°C° 0 mm 5 mps 599 mmHg 8%
    19:00 +33°C° 0 mm 4 mps 598 mmHg 9%
    20:00 +30°C° 0 mm 4 mps 597 mmHg 10%
    21:00 +29°C° 0 mm 3 mps 597 mmHg 11%
    22:00 +27°C° 0 mm 3 mps 597 mmHg 12%
    23:00 +26°C° 0 mm 2 mps 597 mmHg 13%
    Show more